�������l�o���
Date,Time,MP-1(��Sv/h),MP-2(��Sv/h),MP-3(��Sv/h),MP-4(��Sv/h),MP-5(��Sv/h),MP-6(��Sv/h),MP-7(��Sv/h),MP-8(��Sv/h),����,����(m/s),���J
2015/01/15,00:00,1.990,3.660,3.938,3.575,3.770,1.140,1.882,2.207,��,2.2,��
2015/01/15,00:10,1.990,3.660,3.937,3.575,3.770,1.138,1.882,2.205,��,1.8,��
2015/01/15,00:20,1.992,3.658,3.938,3.575,3.768,1.138,1.882,2.207,��쐼,1.0,��
2015/01/15,00:30,1.990,3.660,3.935,3.572,3.770,1.138,1.878,2.205,��,0.6,��
2015/01/15,00:40,1.992,3.660,3.933,3.573,3.768,1.138,1.878,2.207,-,CALM,��
2015/01/15,00:50,1.990,3.660,3.935,3.572,3.773,1.137,1.877,2.207,�k�k��,0.7,��
2015/01/15,01:00,1.990,3.657,3.938,3.573,3.770,1.138,1.880,2.207,�k,1.7,��
2015/01/15,01:10,1.992,3.657,3.940,3.577,3.767,1.138,1.878,2.210,�k�k��,3.0,��
2015/01/15,01:20,1.990,3.660,3.937,3.575,3.772,1.137,1.880,2.207,�k�k��,3.9,��
2015/01/15,01:30,1.992,3.660,3.942,3.575,3.773,1.138,1.882,2.207,�k�k��,3.4,��
2015/01/15,01:40,1.988,3.662,3.938,3.578,3.773,1.138,1.880,2.205,�k�k��,3.5,��
2015/01/15,01:50,1.988,3.660,3.937,3.575,3.775,1.138,1.882,2.208,�k,3.5,��
2015/01/15,02:00,1.990,3.660,3.940,3.575,3.775,1.138,1.882,2.207,�k,4.0,��
2015/01/15,02:10,1.993,3.660,3.933,3.573,3.773,1.140,1.882,2.207,�k,5.1,��
2015/01/15,02:20,1.992,3.662,3.933,3.575,3.773,1.140,1.880,2.205,�k,5.4,��
2015/01/15,02:30,1.992,3.662,3.937,3.575,3.773,1.140,1.880,2.207,�k�k��,6.3,��
2015/01/15,02:40,1.992,3.658,3.938,3.577,3.772,1.140,1.880,2.207,�k,6.3,��
2015/01/15,02:50,1.987,3.662,3.937,3.572,3.770,1.142,1.880,2.205,�k,6.6,��
2015/01/15,03:00,1.992,3.662,3.937,3.577,3.775,1.140,1.880,2.210,�k�k��,6.1,��
2015/01/15,03:10,1.992,3.660,3.937,3.573,3.772,1.138,1.880,2.208,�k�k��,6.5,��
2015/01/15,03:20,1.990,3.658,3.937,3.572,3.773,1.140,1.880,2.207,�k�k��,6.1,��
2015/01/15,03:30,1.992,3.657,3.933,3.573,3.772,1.140,1.885,2.208,�k�k��,6.3,��
2015/01/15,03:40,1.992,3.658,3.937,3.575,3.773,1.142,1.885,2.208,�k�k��,5.8,��
2015/01/15,03:50,1.993,3.662,3.940,3.575,3.773,1.140,1.875,2.208,�k�k��,6.3,��
2015/01/15,04:00,1.990,3.660,3.940,3.572,3.772,1.140,1.880,2.205,�k�k��,6.3,��
2015/01/15,04:10,1.992,3.662,3.940,3.572,3.770,1.142,1.885,2.205,�k�k��,5.4,��
2015/01/15,04:20,1.992,3.662,3.933,3.577,3.770,1.142,1.882,2.207,�k�k��,5.2,��
2015/01/15,04:30,1.988,3.662,3.938,3.578,3.768,1.140,1.882,2.207,�k�k��,5.4,��
2015/01/15,04:40,1.990,3.660,3.935,3.577,3.772,1.137,1.883,2.207,�k�k��,5.4,��
2015/01/15,04:50,1.990,3.660,3.942,3.577,3.770,1.137,1.882,2.203,�k�k��,5.5,��
2015/01/15,05:00,1.990,3.660,3.942,3.577,3.772,1.140,1.882,2.202,�k�k��,6.0,��
2015/01/15,05:10,1.990,3.660,3.937,3.577,3.770,1.142,1.882,2.203,�k�k��,5.7,��
2015/01/15,05:20,1.992,3.658,3.938,3.582,3.768,1.138,1.883,2.205,�k�k��,6.1,��
2015/01/15,05:30,1.992,3.660,3.933,3.577,3.770,1.140,1.882,2.205,�k�k��,6.7,��
2015/01/15,05:40,1.988,3.660,3.938,3.575,3.763,1.140,1.880,2.207,�k�k��,6.0,��
2015/01/15,05:50,1.990,3.660,3.942,3.573,3.768,1.140,1.880,2.203,�k�k��,5.3,��
2015/01/15,06:00,1.990,3.658,3.937,3.573,3.768,1.140,1.882,2.205,�k�k��,4.5,��
2015/01/15,06:10,1.990,3.662,3.938,3.573,3.772,1.140,1.878,2.207,�k�k��,4.4,��
2015/01/15,06:20,1.990,3.660,3.943,3.575,3.772,1.140,1.880,2.207,�k�k��,3.9,��
2015/01/15,06:30,1.992,3.658,3.940,3.575,3.768,1.138,1.880,2.205,�k��,3.5,��
2015/01/15,06:40,1.993,3.660,3.937,3.575,3.768,1.138,1.880,2.207,�k�k��,3.0,��
2015/01/15,06:50,1.993,3.658,3.937,3.573,3.768,1.135,1.880,2.207,�k�k��,2.8,��
2015/01/15,07:00,1.992,3.663,3.937,3.575,3.773,1.135,1.878,2.205,�k�k��,3.0,��
2015/01/15,07:10,1.992,3.662,3.937,3.573,3.768,1.135,1.882,2.205,�k�k��,3.0,��
2015/01/15,07:20,1.993,3.657,3.935,3.573,3.767,1.132,1.880,2.205,�k�k��,3.6,��
2015/01/15,07:30,1.992,3.665,3.938,3.577,3.773,1.132,1.882,2.207,�k�k��,3.9,��
2015/01/15,07:40,1.992,3.663,3.942,3.577,3.770,1.127,1.883,2.207,�k�k��,3.8,��
2015/01/15,07:50,1.993,3.662,3.940,3.577,3.770,1.127,1.883,2.208,�k�k��,4.4,��
2015/01/15,08:00,1.992,3.660,3.945,3.578,3.770,1.123,1.883,2.205,�k�k��,3.8,��
2015/01/15,08:10,1.992,3.660,3.942,3.577,3.772,1.120,1.882,2.205,�k�k��,4.6,��
2015/01/15,08:20,1.997,3.663,3.947,3.578,3.772,1.118,1.880,2.205,�k�k��,4.6,��
2015/01/15,08:30,1.993,3.662,3.942,3.577,3.773,1.118,1.883,2.205,�k�k��,4.6,��
2015/01/15,08:40,1.992,3.665,3.940,3.580,3.772,1.117,1.882,2.205,�k�k��,4.7,��
2015/01/15,08:50,1.993,3.663,3.943,3.578,3.775,1.117,1.883,2.205,�k��,4.8,��
2015/01/15,09:00,1.992,3.663,3.943,3.578,3.772,1.115,1.880,2.205,�k�k��,4.4,��
2015/01/15,09:10,1.993,3.658,3.943,3.578,3.778,1.118,1.882,2.203,�k�k��,4.8,��
2015/01/15,09:20,1.997,3.663,3.952,3.577,3.782,1.118,1.882,2.207,�k�k��,4.7,��
2015/01/15,09:30,1.992,3.658,3.945,3.582,3.780,1.117,1.883,2.208,�k�k��,5.6,��
2015/01/15,09:40,1.992,3.663,3.945,3.578,3.777,1.122,1.883,2.205,�k�k��,6.3,��
2015/01/15,09:50,1.992,3.667,3.950,3.580,3.778,1.117,1.885,2.203,�k�k��,7.1,�L
2015/01/15,10:00,1.993,3.665,3.945,3.582,3.777,1.117,1.883,2.207,�k�k��,7.4,�L
2015/01/15,10:10,1.995,3.665,3.943,3.580,3.775,1.118,1.885,2.205,�k�k��,6.0,�L
2015/01/15,10:20,1.997,3.660,3.943,3.580,3.773,1.118,1.883,2.203,�k�k��,4.6,�L
2015/01/15,10:30,1.997,3.663,3.945,3.578,3.773,1.117,1.883,2.202,�k�k��,4.2,��
2015/01/15,10:40,1.997,3.663,3.948,3.578,3.773,1.113,1.883,2.200,�k�k��,0.6,��
2015/01/15,10:50,1.993,3.660,3.940,3.580,3.772,1.113,1.885,2.202,�k,1.7,��
2015/01/15,11:00,1.995,3.658,3.942,3.580,3.772,1.115,1.885,2.207,�k�k��,0.7,��
2015/01/15,11:10,1.993,3.663,3.947,3.580,3.770,1.117,1.883,2.205,�k�k��,1.5,��
2015/01/15,11:20,1.992,3.665,3.943,3.580,3.772,1.117,1.885,2.205,�k��,1.1,��
2015/01/15,11:30,1.998,3.663,3.942,3.580,3.773,1.117,1.885,2.205,-,CALM,��
2015/01/15,11:40,1.995,3.667,3.945,3.580,3.775,1.115,1.885,2.205,�k�k��,1.4,��
2015/01/15,11:50,1.993,3.660,3.948,3.577,3.778,1.115,1.885,2.203,-,CALM,��
2015/01/15,12:00,1.997,3.653,3.948,3.582,3.780,1.115,1.883,2.205,�k,1.5,��
2015/01/15,12:10,1.995,3.660,3.943,3.582,3.778,1.115,1.885,2.202,�k,1.1,��
2015/01/15,12:20,1.997,3.665,3.947,3.580,3.780,1.117,1.883,2.202,�k�k��,0.9,��
2015/01/15,12:30,1.992,3.668,3.947,3.580,3.782,1.117,1.883,2.200,�k��,1.5,��
2015/01/15,12:40,1.992,3.667,3.947,3.582,3.778,1.115,1.883,2.203,�k,2.1,��
2015/01/15,12:50,1.993,3.663,3.945,3.587,3.785,1.115,1.885,2.203,�k,2.2,��
2015/01/15,13:00,1.998,3.665,3.950,3.583,3.778,1.117,1.885,2.202,�k�k��,3.4,�L
2015/01/15,13:10,1.997,3.663,3.943,3.583,3.775,1.117,1.885,2.203,�k,2.7,�L
2015/01/15,13:20,1.995,3.658,3.938,3.575,3.767,1.120,1.885,2.200,�k,3.7,�L
2015/01/15,13:30,1.992,3.645,3.935,3.580,3.758,1.120,1.882,2.203,�k,3.7,�L
2015/01/15,13:40,1.995,3.638,3.925,3.572,3.752,1.118,1.882,2.202,�k,3.2,�L
2015/01/15,13:50,1.992,3.630,3.913,3.570,3.748,1.120,1.878,2.200,�k,4.4,�L
2015/01/15,14:00,1.988,3.620,3.902,3.562,3.738,1.118,1.877,2.197,�k�k��,4.2,�L
2015/01/15,14:10,1.988,3.603,3.892,3.553,3.727,1.115,1.875,2.197,�k�k��,4.5,�L
2015/01/15,14:20,1.985,3.593,3.885,3.545,3.713,1.117,1.872,2.192,�k�k��,4.4,�L
2015/01/15,14:30,1.978,3.585,3.870,3.537,3.700,1.113,1.872,2.192,�k�k��,4.9,�L
2015/01/15,14:40,1.973,3.573,3.857,3.530,3.685,1.113,1.872,2.190,�k�k��,5.5,�L
2015/01/15,14:50,1.970,3.565,3.845,3.525,3.675,1.112,1.868,2.185,�k�k��,5.3,�L
2015/01/15,15:00,1.968,3.552,3.835,3.512,3.663,1.113,1.867,2.185,�k�k��,6.0,�L
2015/01/15,15:10,1.965,3.532,3.822,3.502,3.653,1.112,1.863,2.182,�k,5.3,�L
2015/01/15,15:20,1.957,3.518,3.812,3.493,3.645,1.115,1.863,2.182,�k,6.0,�L
2015/01/15,15:30,1.950,3.498,3.798,3.480,3.630,1.112,1.858,2.178,�k,5.5,�L
2015/01/15,15:40,1.948,3.483,3.785,3.467,3.612,1.112,1.857,2.180,�k,6.3,�L
2015/01/15,15:50,1.942,3.475,3.773,3.457,3.597,1.113,1.853,2.175,�k,6.1,�L
2015/01/15,16:00,1.937,3.465,3.763,3.443,3.587,1.113,1.852,2.172,�k,6.7,�L
2015/01/15,16:10,1.933,3.455,3.753,3.435,3.587,1.112,1.848,2.167,�k,6.5,�L
2015/01/15,16:20,1.928,3.450,3.745,3.430,3.575,1.113,1.848,2.165,�k,6.0,�L
2015/01/15,16:30,1.925,3.440,3.733,3.420,3.567,1.110,1.845,2.165,�k�k��,6.4,�L
2015/01/15,16:40,1.922,3.427,3.722,3.402,3.548,1.110,1.840,2.163,�k,6.1,�L
2015/01/15,16:50,1.912,3.415,3.717,3.390,3.533,1.108,1.837,2.160,�k�k��,5.8,�L
2015/01/15,17:00,1.907,3.408,3.705,3.387,3.527,1.108,1.833,2.157,�k�k��,6.6,�L
2015/01/15,17:10,1.903,3.402,3.700,3.380,3.523,1.105,1.832,2.155,�k�k��,7.7,�L
2015/01/15,17:20,1.903,3.403,3.698,3.375,3.520,1.103,1.832,2.155,�k,4.8,�L
2015/01/15,17:30,1.898,3.397,3.695,3.370,3.505,1.100,1.828,2.152,�k�k��,6.5,�L
2015/01/15,17:40,1.897,3.398,3.690,3.365,3.505,1.098,1.827,2.152,�k�k��,4.1,�L
2015/01/15,17:50,1.895,3.397,3.685,3.365,3.495,1.098,1.823,2.148,�k,4.5,�L
2015/01/15,18:00,1.897,3.400,3.690,3.362,3.490,1.100,1.825,2.147,�k�k��,6.0,�L
2015/01/15,18:10,1.892,3.397,3.688,3.357,3.483,1.098,1.825,2.148,�k�k��,7.4,�L
2015/01/15,18:20,1.892,3.390,3.680,3.357,3.478,1.100,1.823,2.148,�k�k��,8.6,�L
2015/01/15,18:30,1.892,3.385,3.678,3.358,3.477,1.098,1.823,2.148,�k��,8.8,�L
2015/01/15,18:40,1.892,3.382,3.680,3.355,3.472,1.097,1.823,2.148,�k�k��,9.6,�L
2015/01/15,18:50,1.890,3.373,3.670,3.350,3.468,1.098,1.817,2.145,�k�k��,9.4,�L
2015/01/15,19:00,1.888,3.372,3.658,3.342,3.457,1.097,1.817,2.142,�k�k��,9.1,�L
2015/01/15,19:10,1.887,3.358,3.647,3.335,3.447,1.093,1.810,2.137,�k�k��,11.0,�L
2015/01/15,19:20,1.882,3.342,3.620,3.320,3.423,1.085,1.800,2.130,�k�k��,10.8,�L
2015/01/15,19:30,1.878,3.318,3.590,3.302,3.392,1.083,1.788,2.122,�k�k��,11.6,�L
2015/01/15,19:40,1.872,3.293,3.560,3.283,3.367,1.078,1.780,2.112,�k�k��,11.6,�L
2015/01/15,19:50,1.865,3.280,3.535,3.270,3.347,1.077,1.777,2.102,�k�k��,12.1,�L
2015/01/15,20:00,1.868,3.265,3.507,3.263,3.327,1.072,1.768,2.098,�k�k��,8.8,�L
2015/01/15,20:10,1.862,3.247,3.490,3.250,3.310,1.067,1.760,2.098,�k�k��,11.3,�L
2015/01/15,20:20,1.860,3.233,3.472,3.242,3.290,1.063,1.762,2.095,�k�k��,10.4,�L
2015/01/15,20:30,1.855,3.222,3.453,3.230,3.277,1.063,1.762,2.092,�k�k��,11.0,�L
2015/01/15,20:40,1.852,3.207,3.433,3.222,3.263,1.062,1.760,2.093,�k�k��,9.1,�L
2015/01/15,20:50,1.848,3.197,3.417,3.218,3.255,1.060,1.762,2.097,�k�k��,11.2,�L
2015/01/15,21:00,1.850,3.187,3.405,3.220,3.250,1.058,1.765,2.095,�k�k��,11.2,�L
2015/01/15,21:10,1.848,3.178,3.400,3.217,3.242,1.058,1.765,2.098,�k�k��,10.8,�L
2015/01/15,21:20,1.845,3.165,3.385,3.210,3.227,1.057,1.763,2.097,�k�k��,10.5,�L
2015/01/15,21:30,1.845,3.155,3.375,3.210,3.215,1.058,1.763,2.097,�k�k��,8.8,�L
2015/01/15,21:40,1.842,3.138,3.363,3.202,3.207,1.055,1.763,2.098,�k��,11.8,�L
2015/01/15,21:50,1.842,3.147,3.367,3.207,3.197,1.055,1.765,2.097,�k��,9.6,�L
2015/01/15,22:00,1.842,3.152,3.372,3.217,3.193,1.053,1.767,2.098,�k�k��,10.7,�L
2015/01/15,22:10,1.845,3.158,3.382,3.222,3.193,1.055,1.767,2.098,�k�k��,11.8,�L
2015/01/15,22:20,1.847,3.172,3.397,3.235,3.202,1.055,1.770,2.103,�k�k��,10.5,�L
2015/01/15,22:30,1.853,3.188,3.417,3.245,3.212,1.057,1.775,2.107,�k�k��,10.7,�L
2015/01/15,22:40,1.857,3.202,3.433,3.257,3.223,1.058,1.778,2.108,�k�k��,11.3,�L
2015/01/15,22:50,1.865,3.212,3.453,3.265,3.232,1.067,1.780,2.110,�k�k��,10.7,�L
2015/01/15,23:00,1.870,3.228,3.468,3.270,3.245,1.068,1.785,2.113,�k�k��,11.6,�L
2015/01/15,23:10,1.872,3.238,3.485,3.280,3.257,1.068,1.787,2.113,�k�k��,12.6,��
2015/01/15,23:20,1.875,3.255,3.502,3.290,3.265,1.070,1.792,2.118,�k�k��,11.3,��
2015/01/15,23:30,1.877,3.270,3.512,3.297,3.275,1.073,1.795,2.122,�k��,11.2,�L
2015/01/15,23:40,1.880,3.278,3.527,3.307,3.282,1.073,1.798,2.123,�k�k��,9.4,�L
2015/01/15,23:50,1.883,3.287,3.542,3.310,3.290,1.077,1.798,2.127,�k��,9.6,�L
